カタログに戻る

THORAD AGENA D DEB

運用中LEO
NORAD 4453·DEBRIS·🇺🇸 United States

打ち上げ Sep 30, 1969 から Vandenberg Space Force Base

Loading…

次のパス (今後24時間)

TLE

最新Source: Space-Track

元期: Sep 14, 2026, 05:25 UTC

1 04453U 69082EY  26257.22581528 -.00000223  00000-0 -92881-4 0  9997
2 04453  70.1343 339.0428 0032715   8.8337 351.3346 14.11241095921029

AllMySatでTHORAD AGENA D DEBをリアルタイム追跡

Download on the App Store